Showing default

VIZARD-ION, 61749

Orbit data source: Space-Track

VIZARD-ION, 61749 is a Commonwealth of Independent States-origin payload satellite in SSO that was launched on Mon, 04 Nov 2024 UTC via a SOYUZ-2-1B launch vehicle from the Vostochny Cosmodrome (VOSTO). Payload-class satellites include a variety of spacecraft equipped with specific instruments for various scientific and technological missions. These include communications satellites like Starlink; space stations such as the ISS; scientific satellites like the Hubble; Earth observation satellites from companies like Planet Labs, Umbra, and HawkEye 360; GPS; miniature CubeSats for education and research; and military/defense satellites.

Loading next visibility...
Identifier
61749, 2024-199Q
Orbit
SSO
Country
Flag of CISCIS
Related business
Manufacturer
Geoskan
Mission
Operational Commercial Technology
Bus & Motor
CUBESAT 3U, Unknown motor
Mass
3 kg wet, 3 kg dry
Launch date (UTC)
2024-11-04 (1 year ago)
Launch vehicle
SOYUZ-2-1B
Launch site
Vostochny Cosmodrome (VOSTO)
Object type
Payload
Rocket body
Debris
Shape & HBR
Box, 0.1 m
Radar Cross Section
0.035 m², Small (<0.1 m²)

Expand to show TLE details & history
Last TLE update: 16 hours ago

TLE from 16 hours ago
0 VIZARD-ION
1 61749U 24199Q   25296.94801550  .00027251  00000-0  69415-3 0  9993
2 61749  97.3316 165.6338 0012242  58.2210 302.0227 15.39453477101049
Epoch: 2025-10-23T22:45Z
TLE epoch observation values (Epoch: 2025-10-23T22:45:08.539Z)
Latitude
0.00003°
Longitude
151.74827°
Altitude
446.419 km
Speed
7.647 km/s
True Right ascension
11h 02m 32s
True Declination
0° 00' 00"
Sunlit
Object was in daylight at epoch
Visualization orbit readout
Latitude
Unknown
Longitude
Unknown
Altitude
Unknown
Speed
Unknown
Apparent Right ascension
Unknown
Apparent Declination
Unknown
Sunlit
N/A
Visualization observer readout
Local Sidereal Time
10:15:43
Azimuth
Unknown
Elevation
Unknown
Doppler factor
Unknown
Orbital elements
Apogee altitude
453.014 km
Perigee altitude
436.309 km
Semi-major axis
6,822.798 km
Eccentricity
0.00122
Inclination
97.3316°
RAAN
165.6338°
Arg. of periapsis
58.221°
True anomaly
301.90367°
Mean anomaly
302.0227°
Eccentric anomaly
301.96319°
Mean motion
3.85123 °/min
Orbital period
93.48 mins
BSTAR
0.00069415
Loading maneuver chart data...
Computing Atmospheric mass density...
Loading historical data...
Loading historical data...
Loading historical data...
Loading historical data...
Loading historical data...
Loading historical data...
Loading historical data...

Documentation

Showing up to 5 results
|